Weather in Baygul

Russia / Zabaykalsky Krai     52°14′52″N   116°44′44″E
temp.,
°C
wind,
m/s
gust,
m/s
humid.,
%
clouds,
%
prec.,
mm/h
press.,
hPa
HPBL,
m
16 october, sat
sat1600:00−8nw511612 0.0 1038284
03:00−9nw511610 0.0 1037324
06:00−10wnw39680 0.0 1037174
09:00−9w36654 0.0 1036155
12:00−6w46475 0.0 1033701
15:00−4wsw674789 0.0 10301206
18:00−5ssw4964100 0.0 1027272
21:00−7ssw387721 0.0 1025153
17 october, sun
sun1700:00−7sw3980100 0.0 1023200
03:00−8wsw2287100 0.0 102231
06:00−8wsw118995 0.0 102016
09:00−7wnw0183100 0.0 102061
12:00−3nnw2265100 0.0 1019364
15:000wnw2354100 0.0 1018611
18:00−3w227831 0.0 102020
21:00−6wnw22833 0.0 102316
18 october, mon
mon1800:00−7wnw22823 0.0 102526
03:00−8wnw22864 0.0 102625
06:00−9w11905 0.0 102814
09:00−7w22771 0.0 103055
12:00−1wnw34515 0.0 1028451
15:00+2w46485 0.0 1027901
18:00−2sw3373100 0.0 102827
21:00−4sw227813 0.0 102825
19 october, tue
tue1900:00−5sw33795 0.0 102852
03:00−5sw35815 0.0 102779
06:00−6sw36835 0.0 1027106
09:00−5sw25795 0.0 1026118
12:00+1w34595 0.0 1024320
15:00+3w34523 0.0 1023541
18:000sw33730 0.0 102424
21:00−1wsw11720 0.0 102510
20 october, wed
wed2000:00−2w11705 0.0 102610
03:00−2sw11730 0.0 102610
06:00−3sw11755 0.0 102710
09:00−2sw117216 0.0 102718
12:00+2wsw225675 0.0 1026312
15:00+4w33505 0.0 1024482
18:000sw22705 0.0 102410
21:00−1sw22730 0.0 102510